Wind_Speed
39 40 41 43 44 46 47 47 48 48 49 50 51 53 54 55 56 57 58 59 60 61 62 63 63 64 65 66 65 66 67 67 68 68 68 69 70 71 71 72 71 72 73 75 79 80 82 82 82 84 84 83 81 80 80 81 82 82 80 77 72 68 68 73 77 77 76 79 82 87 80 74 79 77 74 72 73 76 71 69 68 63 63 61 60 62 63 63
40 41 42 44 46 48 49 50 51 51 52 52 54 55 56 57 58 59 61 62 63 64 65 66 67 68 69 70 69 70 71 70 71 70 69 71 72 71 72 74 74 74 75 75 76 78 81 83 84 85 85 86 84 83 83 83 84 82 81 78 72 67 68 74 78 79 81 83 84 88 82 76 79 78 75 74 75 76 73 74 74 69 65 63 62 64 66 66
42 42 43 45 47 49 51 53 54 54 55 55 56 57 58 60 61 62 64 66 67 68 70 70 71 72 73 74 73 74 75 75 74 71 72 74 73 73 74 76 76 77 78 78 77 77 79 82 85 86 86 87 86 86 86 86 84 82 82 78 72 69 71 75 76 78 82 84 87 89 82 77 81 79 75 75 76 76 76 76 76 74 70 66 64 62 64 66
43 44 44 46 47 49 51 54 55 56 57 58 60 61 62 64 65 67 68 70 72 73 74 75 76 77 78 79 78 78 79 80 78 74 76 77 76 76 77 77 78 79 80 80 80 80 79 81 84 86 87 87 88 88 89 89 85 83 83 77 72 73 75 75 77 79 81 83 85 87 81 77 80 78 74 74 74 74 76 76 76 76 74 70 69 66 62 63
43 44 44 44 45 47 48 51 53 55 57 59 60 62 64 66 67 69 72 74 76 77 78 79 81 82 84 84 84 84 84 86 81 77 81 81 80 80 79 80 81 81 82 82 82 83 82 82 83 84 86 88 89 90 90 89 86 86 85 78 75 76 77 77 79 81 82 82 82 83 78 75 78 76 73 72 72 73 74 75 74 72 70 68 69 68 65 61
37 38 37 38 38 38 40 42 45 48 50 52 55 57 60 63 66 70 73 76 78 80 81 83 84 86 88 89 89 89 90 91 85 82 87 86 84 83 83 83 83 83 84 84 84 85 85 86 85 84 84 86 89 90 89 89 89 89 86 80 77 78 79 80 82 82 82 83 83 80 76 76 77 75 73 71 71 73 74 75 70 67 66 64 63 63 63 61
27 28 28 29 30 31 33 36 39 42 45 49 53 57 61 65 69 73 76 79 81 83 85 86 88 90 92 93 94 94 94 95 90 87 92 91 88 87 87 87 87 86 86 86 86 86 87 88 87 86 85 86 87 88 89 90 92 91 85 82 80 80 82 83 84 84 83 83 83 78 76 78 76 75 75 71 71 72 75 73 67 66 67 63 59 59 60 60
23 24 26 28 31 33 36 38 41 45 49 52 57 61 66 70 74 78 82 85 87 89 91 92 94 96 97 99 100 100 100 99 95 93 96 96 93 92 91 91 91 90 89 88 88 88 89 89 89 89 89 88 86 87 89 92 94 91 85 83 83 83 84 85 85 85 84 84 83 77 76 79 78 77 76 73 71 72 75 71 65 68 68 64 62 62 62 60
27 29 31 33 35 37 40 42 45 49 52 56 61 65 69 74 78 82 85 88 91 93 95 97 99 100 102 103 105 107 107 105 102 99 99 100 99 98 97 96 95 94 93 92 91 90 90 91 91 91 91 91 89 89 90 92 92 88 84 84 84 86 88 89 86 85 86 85 82 78 77 79 80 78 76 76 73 72 76 70 66 69 68 67 66 64 63 60
31 32 34 36 38 40 43 46 48 51 54 58 62 66 70 75 79 83 86 89 91 94 96 97 99 101 103 105 107 111 111 109 108 105 103 104 104 103 102 101 99 99 97 95 94 93 92 92 93 93 93 93 93 92 91 91 88 84 85 86 88 90 92 90 87 88 87 84 81 76 76 79 81 78 75 76 73 73 76 69 66 69 67 67 66 63 62 59
33 35 36 38 40 43 45 47 50 52 54 58 62 66 70 73 77 81 84 87 89 91 93 94 96 98 100 103 106 110 111 110 110 108 108 108 108 107 106 105 104 103 102 99 98 96 95 95 95 95 94 94 94 94 93 91 86 83 86 89 90 91 92 90 90 89 86 84 80 75 77 82 82 77 72 74 73 75 76 68 67 68 64 65 64 63 62 59
34 36 38 39 41 43 45 47 49 51 54 57 61 64 68 72 75 78 81 83 84 86 87 89 90 92 93 96 101 105 106 107 107 108 109 109 110 110 109 109 108 107 106 103 102 100 98 98 97 96 95 95 95 94 95 93 87 86 87 87 87 89 91 92 90 88 86 85 81 77 81 83 77 72 70 74 76 76 73 69 69 67 64 64 63 62 61 58
34 36 37 39 40 42 44 45 48 50 53 56 60 63 66 69 72 75 77 78 79 79 80 81 82 83 84 87 92 96 97 98 100 102 105 106 109 111 111 112 112 111 110 108 106 104 102 101 99 98 98 97 96 96 97 94 90 89 88 87 87 89 92 92 88 86 87 85 82 82 83 79 71 69 72 75 77 75 71 70 70 68 66 64 61 61 59 57
35 36 37 38 40 41 43 45 47 50 53 56 60 62 64 67 69 71 72 73 72 72 72 73 74 75 76 78 83 85 85 86 89 93 97 100 104 108 111 112 114 114 113 112 110 108 106 105 103 102 101 98 97 98 97 94 93 92 92 91 88 88 90 90 86 84 87 85 84 86 83 77 70 71 75 73 75 75 70 71 72 68 67 64 61 59 58 57
39 39 40 40 41 42 43 46 48 50 54 57 59 60 62 64 66 68 68 67 66 65 65 66 68 69 69 71 75 76 75 75 78 83 87 92 97 102 107 110 113 115 115 115 114 112 110 109 107 105 103 101 100 100 97 95 96 95 96 94 87 85 85 86 85 83 85 85 86 87 81 75 73 74 76 72 75 76 69 72 74 68 67 65 62 60 59 58
42 44 44 43 43 43 44 46 48 51 54 57 58 59 59 61 63 64 63 61 61 61 60 61 62 63 63 64 68 68 66 66 69 73 78 84 89 94 99 104 110 114 116 117 116 115 114 112 110 108 107 105 103 101 98 98 99 97 97 93 87 83 83 84 83 81 83 85 87 86 77 74 76 78 78 74 75 76 69 71 73 68 67 65 63 62 60 58
44 46 48 47 46 45 46 47 49 51 54 56 57 57 57 58 60 61 58 54 56 58 56 56 58 59 59 59 61 60 58 58 60 65 70 76 82 87 91 97 103 109 113 116 117 117 116 115 114 111 110 109 105 103 102 101 100 97 95 92 86 83 83 83 82 80 82 85 86 83 76 76 81 81 81 78 78 76 70 70 72 68 67 64 62 62 59 57
44 47 50 51 50 49 48 49 50 52 54 55 56 55 56 56 57 57 54 48 49 52 51 52 53 54 54 55 57 55 53 53 54 57 61 68 75 80 85 90 96 102 108 113 115 117 117 117 116 115 114 112 108 106 104 99 95 93 90 87 85 84 85 85 84 82 81 83 84 81 77 78 82 80 82 84 80 76 72 70 70 68 66 63 60 59 57 56
46 49 52 54 54 53 52 52 52 53 54 55 55 54 54 55 55 54 51 45 44 46 45 46 49 50 50 51 54 53 50 51 52 51 54 59 66 73 79 84 89 95 101 106 111 114 117 118 117 117 116 112 108 106 101 94 91 90 88 88 88 89 90 89 88 86 83 81 82 81 77 78 81 81 85 87 81 76 74 71 70 69 66 63 59 57 55 55
49 51 54 57 58 57 56 55 55 55 56 56 55 54 54 54 53 50 49 44 41 41 41 40 42 46 47 47 49 48 47 47 48 49 50 53 58 66 73 79 85 89 94 100 105 110 115 118 118 117 114 111 107 104 99 95 94 94 94 95 96 94 94 92 91 89 85 80 79 79 76 78 81 82 87 88 80 75 74 72 73 70 66 62 59 57 55 55
53 55 57 60 61 62 61 59 58 58 59 58 56 55 55 55 53 49 46 44 40 37 37 37 38 41 43 44 44 43 41 41 43 46 48 50 55 62 69 76 82 86 90 95 101 106 111 115 116 114 112 110 108 106 103 101 101 101 100 101 100 97 95 94 91 91 88 79 77 78 75 78 80 81 88 86 78 74 73 74 76 73 68 64 60 58 58 57
57 59 61 63 64 65 64 63 63 62 62 61 58 56 56 57 56 50 46 44 42 37 34 34 36 38 40 41 41 39 38 37 39 43 46 49 53 59 66 72 78 83 87 92 97 102 105 108 111 111 111 111 110 109 107 106 105 104 103 102 100 97 95 94 92 93 91 81 77 78 75 76 77 80 88 85 75 74 74 76 79 75 70 66 63 60 59 58
62 63 64 66 67 68 67 66 66 65 65 63 59 56 56 58 57 53 48 45 43 39 34 32 34 36 38 39 38 38 37 36 37 40 44 48 51 56 62 69 75 80 85 90 93 97 100 103 105 108 111 113 114 112 110 109 108 106 105 102 99 97 95 94 93 94 92 81 77 79 76 77 78 81 86 82 73 73 75 77 79 75 70 67 65 62 60 58
66 67 68 69 70 70 70 69 69 68 67 65 62 57 57 58 58 55 52 48 44 40 35 33 33 34 35 36 36 35 35 35 36 38 41 45 48 53 58 66 72 78 82 86 90 93 96 99 100 104 110 115 116 114 112 111 109 108 106 100 98 97 95 94 95 95 91 83 79 81 80 79 80 80 83 79 72 73 75 73 73 73 70 67 66 64 61 58
70 71 71 72 72 72 71 71 71 71 70 68 64 59 57 58 58 56 54 50 45 42 37 34 34 33 33 33 32 32 32 33 34 36 39 41 45 50 55 62 69 74 80 84 87 90 92 94 97 102 109 114 115 114 113 111 110 109 105 99 98 98 96 96 97 95 91 86 81 81 81 80 80 79 79 76 69 70 74 71 67 67 68 67 65 64 62 59
73 74 75 75 75 74 73 73 73 73 73 70 66 61 58 58 59 57 55 52 48 44 39 35 33 32 32 31 30 29 29 30 31 34 37 38 42 46 51 58 65 71 77 81 84 86 87 91 96 100 105 110 113 114 113 111 111 110 104 99 98 100 99 98 98 95 90 86 82 81 82 83 83 79 76 73 68 68 74 73 68 65 64 65 65 63 60 59
75 77 77 77 76 75 74 74 74 74 74 72 68 63 59 59 59 58 55 52 50 46 41 36 34 32 31 30 29 26 26 26 28 31 34 36 40 43 48 54 60 67 73 77 81 82 83 87 93 98 101 106 110 113 113 112 112 110 104 101 101 102 100 97 97 95 89 87 86 84 86 88 85 79 74 71 68 68 71 71 68 66 62 62 63 61 59 59
77 80 80 78 76 75 75 76 76 76 75 73 69 65 61 60 60 60 56 53 51 48 42 38 37 34 31 29 28 26 24 24 26 29 31 33 37 40 45 50 56 63 69 72 75 77 80 86 91 95 99 103 106 110 113 113 112 110 106 104 104 102 99 97 97 94 89 90 91 87 88 90 84 78 76 72 68 67 68 67 66 65 63 62 62 60 60 60
79 81 82 79 76 75 75 77 77 77 76 74 71 66 63 62 61 61 58 54 52 49 45 41 39 37 34 30 27 25 24 23 24 27 29 31 34 38 42 46 51 58 62 65 68 73 79 85 89 93 97 100 102 106 112 114 112 111 107 105 105 103 101 99 97 95 93 93 93 89 88 88 82 79 78 72 65 63 64 64 64 62 61 61 62 60 61 62
81 83 82 79 76 74 76 77 78 78 77 75 72 67 64 63 63 62 59 56 53 50 47 43 40 39 37 32 28 25 23 22 23 25 27 29 31 36 40 42 47 52 56 58 63 71 79 83 86 90 94 96 98 102 107 111 112 112 109 107 107 105 102 101 98 97 98 97 92 88 86 84 81 81 77 68 62 60 61 62 60 59 58 58 59 60 61 61
81 83 82 79 76 75 76 77 78 78 77 76 73 68 63 62 63 63 61 57 54 52 48 44 40 39 37 34 30 25 22 21 22 23 25 28 29 33 36 39 42 46 49 53 59 69 78 81 82 85 89 92 94 97 102 108 112 113 111 110 110 108 105 103 100 100 103 98 89 85 85 84 82 80 74 67 63 62 61 59 57 57 57 55 56 58 60 59
81 82 81 78 76 76 77 78 78 78 78 76 73 68 63 61 62 63 61 58 56 53 49 45 41 39 36 33 29 26 22 20 20 22 23 26 27 29 32 34 37 40 45 52 58 65 72 76 78 80 82 87 91 94 99 108 114 114 114 114 113 110 107 105 103 104 103 92 83 84 86 84 80 76 73 70 66 63 61 59 58 57 56 55 56 58 58 57
81 81 79 76 75 76 78 79 79 79 78 77 74 69 64 60 61 62 61 60 58 55 50 43 39 37 33 29 26 24 22 19 19 20 21 23 24 26 28 31 35 38 43 50 53 57 63 69 74 76 77 82 87 92 98 106 113 115 116 116 113 111 109 106 104 103 95 84 81 86 87 83 79 75 75 73 67 64 63 61 59 57 55 56 56 57 57 58
81 80 77 75 74 76 78 79 79 79 79 77 74 70 65 61 59 60 61 60 59 57 52 44 39 37 33 28 25 22 20 18 17 19 19 20 22 23 26 29 33 36 41 46 47 49 55 61 66 69 70 75 82 88 95 101 108 113 115 113 110 109 106 102 99 93 85 81 84 87 84 80 77 75 76 74 67 65 65 61 59 57 56 56 56 56 55 56
80 78 75 74 75 77 78 79 79 79 79 78 75 72 66 61 58 59 59 59 59 58 55 48 41 38 34 29 25 22 20 17 15 17 17 18 20 22 24 27 30 33 37 41 43 46 52 58 63 66 68 72 77 85 92 96 103 110 112 111 108 106 102 97 93 87 83 84 86 85 82 78 77 77 77 74 68 66 66 62 59 59 57 57 57 55 54 53
78 75 74 73 75 77 78 79 79 79 79 78 76 73 67 62 59 60 60 59 57 56 53 49 43 38 34 29 25 22 20 17 14 15 15 16 18 20 23 25 28 31 34 38 41 44 49 56 62 67 70 72 76 83 88 91 98 106 111 110 107 104 101 98 94 90 89 90 89 86 82 79 79 79 76 74 68 65 67 64 61 61 59 57 57 55 53 50
76 74 73 73 75 77 78 79 79 78 78 77 76 74 70 64 60 60 60 58 57 56 53 49 44 39 34 30 27 23 21 17 13 13 14 14 16 18 21 24 26 30 33 36 39 43 48 54 59 64 68 71 74 79 84 88 95 104 108 107 105 103 103 100 96 94 93 92 90 86 81 79 79 77 75 74 67 64 67 66 64 64 61 58 57 54 51 49
75 74 73 75 77 78 79 79 79 78 77 76 75 73 70 65 60 59 59 58 56 56 54 50 44 40 35 32 29 25 21 18 13 11 12 12 14 17 20 22 25 28 31 33 37 43 48 53 57 61 65 70 73 77 82 88 96 101 103 104 105 105 104 102 99 97 94 92 89 84 80 79 77 75 74 73 67 63 67 69 67 66 64 60 57 55 52 50
73 73 74 76 78 79 80 80 79 77 77 76 75 73 71 66 61 59 58 58 56 54 54 50 45 40 36 33 30 26 21 18 14 10 9 10 12 15 18 21 24 27 30 33 37 41 45 49 53 59 65 69 73 77 81 87 93 97 101 107 108 106 105 102 98 95 92 89 86 81 79 78 75 74 74 72 67 65 69 71 68 67 65 62 60 58 55 53
72 72 74 77 79 81 82 81 80 79 77 76 75 74 71 66 61 58 58 58 56 55 54 50 44 38 34 31 29 27 22 18 14 10 8 8 10 13 17 20 23 26 29 32 35 39 43 46 51 58 64 69 73 76 80 86 90 95 102 109 111 109 107 102 97 93 90 87 84 79 78 76 74 74 74 72 68 67 70 72 69 67 66 64 62 60 58 56
73 73 74 77 80 82 83 82 81 80 79 77 75 72 69 65 59 57 58 58 56 55 54 50 44 39 34 31 30 27 23 19 15 10 7 6 9 11 14 18 22 25 29 32 35 38 42 47 53 58 63 67 70 74 79 84 88 92 99 106 109 110 107 100 95 92 88 85 82 78 75 74 74 74 74 72 69 68 70 71 69 68 67 65 63 61 61 60
74 74 75 78 82 84 84 83 81 79 78 76 73 71 69 66 61 57 56 57 55 53 51 48 44 40 35 32 30 27 23 19 14 9 5 4 7 10 13 16 20 25 29 32 36 38 41 47 53 57 60 63 66 71 77 82 85 89 96 102 105 105 101 95 91 88 86 84 81 77 75 74 75 75 74 72 69 68 71 72 70 68 67 66 63 60 61 61
75 76 78 80 83 84 84 84 82 80 78 77 75 73 71 67 62 57 54 55 53 51 49 47 43 39 35 32 29 25 22 18 13 9 5 2 5 9 13 16 19 23 27 31 34 38 41 46 52 56 60 62 64 68 74 78 82 86 93 99 101 100 97 93 89 86 85 84 81 77 76 76 77 75 72 71 70 70 72 73 70 69 68 66 60 55 57 60
75 76 78 80 83 84 83 83 83 82 81 79 77 75 71 66 61 56 53 53 53 51 49 47 42 38 35 32 28 25 22 18 14 10 5 0 4 8 12 16 18 21 26 31 34 39 43 46 51 55 59 62 65 70 74 78 81 84 89 95 99 99 97 94 92 90 87 84 81 78 75 75 75 73 70 70 70 72 75 73 71 70 69 66 60 58 60 61
76 75 75 78 81 84 84 83 82 81 80 78 76 74 71 67 61 56 52 51 51 51 49 47 42 37 34 31 27 24 21 18 14 10 7 4 3 7 11 16 18 20 25 30 35 39 44 47 51 54 57 59 61 66 70 73 77 81 86 92 97 99 98 95 93 92 88 84 81 78 76 75 74 71 69 70 72 75 76 73 71 71 69 68 65 62 61 60
78 77 76 77 80 83 84 82 80 79 77 75 73 72 70 66 61 55 51 49 49 48 47 46 43 37 32 29 26 23 20 17 13 10 10 7 4 9 13 16 19 20 24 29 34 38 42 46 48 50 53 56 58 61 65 69 73 78 84 89 93 96 95 93 91 88 86 83 81 79 77 76 74 71 69 70 73 76 76 73 71 70 68 68 67 64 61 59
80 78 78 78 80 83 84 82 79 78 77 74 71 70 67 64 60 55 50 48 47 46 45 44 43 38 33 29 26 22 19 17 15 12 12 7 5 12 16 18 21 22 22 24 28 33 38 42 46 47 50 53 57 62 65 68 72 76 79 84 88 91 92 92 90 87 84 81 78 76 76 75 73 71 69 70 72 74 74 73 71 68 66 63 62 62 60 56
83 81 80 80 81 83 84 84 81 80 79 75 72 69 67 62 58 54 49 45 45 44 43 43 42 37 32 29 26 23 20 19 17 14 11 5 6 14 19 21 23 24 24 24 26 30 36 40 44 47 49 50 54 58 61 65 70 73 75 79 83 87 89 89 88 86 83 79 76 76 75 74 72 70 70 71 72 74 74 72 69 67 64 58 53 54 55 52
87 85 82 82 83 83 84 84 82 80 79 76 72 69 66 62 56 52 48 44 43 43 41 41 39 35 31 28 26 23 21 20 19 16 10 5 7 14 19 22 23 24 26 27 28 30 33 37 41 45 48 50 53 56 60 64 67 69 73 76 79 82 83 84 84 83 81 79 77 75 74 73 72 70 71 72 73 73 73 71 67 62 59 56 53 52 50 50
89 86 83 83 85 85 84 83 82 81 78 76 73 69 65 61 55 51 47 43 42 42 41 39 36 32 29 27 25 23 21 19 19 16 10 5 7 13 18 21 23 24 25 27 29 30 31 35 39 42 45 49 51 54 58 61 63 66 70 74 77 79 80 81 81 79 77 75 74 72 72 72 70 69 69 70 71 72 72 71 66 59 54 54 54 53 52 54
90 86 82 82 85 85 84 83 83 81 77 74 73 70 66 61 55 49 45 40 38 39 38 36 35 32 28 26 24 23 21 18 17 16 11 5 6 12 17 20 22 24 26 27 29 32 33 35 38 41 44 46 48 51 54 57 60 64 67 70 73 75 76 76 74 73 72 72 72 70 70 68 66 66 67 67 69 70 70 70 67 61 56 53 53 55 57 62
91 87 82 81 85 87 85 82 82 82 78 73 71 69 65 60 54 48 44 40 36 36 35 34 34 33 30 27 24 22 20 17 15 14 12 6 4 9 15 18 20 22 24 27 29 32 34 35 37 39 41 43 45 49 53 56 59 62 65 67 69 71 71 71 70 70 71 71 68 67 68 67 65 66 67 68 69 68 67 67 67 63 60 56 55 56 59 63
Wind_Direction
273 273 272 271 269 267 264 263 263 263 263 263 263 262 262 262 261 261 260 259 258 257 257 256 255 254 253 252 251 250 249 248 247 246 245 244 243 241 241 241 239 238 239 239 238 237 235 235 235 236 236 235 235 234 234 233 233 233 233 233 231 231 231 230 229 230 232 234 237 239 236 234 237 237 236 235 235 238 237 238 240 240 245 249 252 254 256 257
274 274 274 273 272 270 268 266 264 264 264 264 264 264 264 263 263 263 262 261 261 260 259 257 256 255 254 253 252 251 250 249 247 246 246 245 244 242 241 241 240 238 238 238 239 238 237 236 235 235 235 236 235 234 234 234 233 234 233 233 231 230 231 232 232 231 231 233 237 239 236 234 237 238 237 237 236 237 238 239 240 239 241 245 248 252 254 256
275 274 273 272 271 270 268 266 264 263 263 264 264 264 264 264 264 264 263 262 262 261 260 259 258 257 256 254 253 251 251 250 248 247 246 246 245 243 242 241 240 239 238 237 238 238 237 237 236 235 235 235 235 235 235 235 234 234 234 233 231 230 231 233 234 234 234 234 236 239 238 236 239 239 238 239 238 239 239 239 240 240 240 242 244 247 250 252
273 273 273 272 272 271 269 267 266 264 264 264 264 265 265 265 265 264 264 263 262 261 261 260 259 258 257 256 255 253 251 250 248 247 247 246 245 244 242 241 240 240 239 237 237 237 237 237 237 236 235 234 235 235 235 236 235 234 234 232 230 230 231 233 235 235 235 236 237 240 240 239 240 240 239 240 240 241 241 241 240 240 240 242 244 245 249 251
272 273 274 274 274 274 273 271 270 269 269 269 269 269 269 268 268 268 267 266 265 263 262 261 260 259 258 257 256 254 252 251 249 248 247 246 244 244 243 242 241 240 239 238 237 236 236 236 236 236 236 235 234 234 235 236 235 235 234 231 229 230 230 232 234 235 236 237 237 239 240 240 242 241 239 240 241 241 242 243 242 242 243 244 246 248 250 251
276 278 278 279 279 278 277 276 275 274 274 274 274 274 274 273 272 271 269 268 266 265 264 263 262 260 259 258 256 255 253 252 251 248 247 246 245 244 243 242 241 240 239 238 237 236 236 236 235 235 236 236 235 235 234 235 235 234 234 231 229 230 230 231 233 234 235 237 237 239 240 240 242 242 241 240 241 243 243 244 245 246 246 246 247 249 249 250
286 286 286 286 286 285 284 284 283 282 282 281 281 279 277 276 274 273 271 270 269 268 267 265 264 263 261 260 259 257 255 253 252 249 248 247 245 244 243 242 242 241 240 239 238 237 236 236 235 235 235 235 235 235 234 234 234 233 232 232 230 230 230 231 232 234 234 237 237 237 240 241 241 242 242 241 242 244 245 246 246 247 247 246 246 248 249 251
302 300 299 298 297 295 293 291 289 287 285 283 281 279 277 276 274 273 272 272 271 270 269 268 267 265 264 262 261 259 257 255 253 249 248 248 246 245 243 242 242 241 240 239 238 237 237 236 236 234 234 234 235 235 234 234 234 233 231 231 231 230 231 231 231 233 234 236 237 237 239 241 241 242 243 242 242 244 246 246 247 248 249 247 247 248 251 252
311 308 304 301 298 294 291 288 286 284 283 282 280 279 278 276 275 274 274 273 272 272 271 270 268 266 265 263 261 260 259 257 255 251 249 248 246 245 244 242 241 241 240 239 238 237 237 236 236 235 234 233 233 234 234 234 234 233 231 231 230 230 231 231 231 232 233 234 236 236 238 241 241 241 242 243 242 245 247 247 247 249 250 250 249 251 252 253
309 305 300 296 293 290 288 286 285 284 284 283 282 281 280 279 278 277 276 275 274 273 272 270 268 266 264 263 261 259 258 257 255 253 250 248 246 245 244 243 242 241 240 239 238 237 237 236 236 235 234 233 233 233 234 234 234 233 231 230 230 230 230 231 231 232 233 234 235 235 238 240 241 240 241 243 243 245 247 247 247 249 251 252 251 251 252 252
305 301 297 294 292 290 288 287 286 286 286 285 285 285 283 282 281 279 278 277 276 274 273 270 268 266 263 262 260 258 257 255 254 253 251 249 247 245 244 243 242 241 240 239 238 237 237 236 236 236 235 234 234 233 234 234 233 232 231 230 230 230 231 230 231 232 233 234 234 234 237 238 239 239 241 245 245 244 247 247 247 249 250 251 251 251 252 252
306 302 298 295 293 291 290 289 289 289 289 290 290 289 288 286 284 283 281 280 278 276 274 271 269 266 263 260 258 256 255 254 253 251 250 248 247 246 244 243 242 241 240 239 238 237 237 236 236 236 235 235 234 233 233 233 232 231 232 231 231 231 231 231 231 232 233 234 233 233 235 237 239 241 242 244 245 244 246 246 247 248 248 250 251 251 252 252
310 305 302 299 297 295 294 294 295 295 296 296 296 295 293 291 288 287 285 284 282 279 276 272 269 266 263 260 258 256 255 253 252 250 249 247 246 245 244 242 242 241 240 239 238 237 237 236 236 235 235 234 234 234 233 232 231 231 231 230 229 230 231 231 230 231 232 233 233 233 235 237 239 241 241 242 244 244 245 246 245 245 246 248 250 250 251 252
322 315 310 306 303 302 302 302 302 303 303 303 303 301 298 295 293 291 290 288 285 281 276 273 270 268 265 261 259 257 255 253 252 250 248 246 244 243 242 241 241 240 240 239 238 237 236 236 235 235 235 234 234 234 233 232 231 230 231 230 228 230 232 232 230 230 232 232 232 233 234 236 236 238 240 240 244 244 243 245 244 244 245 247 248 249 250 251
334 328 322 316 312 310 309 309 308 309 309 309 308 306 303 300 298 296 294 292 289 284 278 275 272 270 266 263 261 259 257 254 252 250 248 246 244 242 241 240 239 239 239 238 238 237 236 235 235 234 234 234 233 233 232 232 232 230 231 230 228 230 232 233 231 230 232 232 232 233 233 234 235 237 239 238 242 243 241 244 245 243 245 246 247 248 249 250
339 336 331 325 320 317 315 313 313 313 313 313 312 309 306 304 302 299 297 295 291 287 283 278 274 272 268 265 263 262 259 255 252 249 247 245 244 242 240 238 238 237 237 237 237 236 235 235 234 234 233 233 232 232 232 231 231 230 231 231 229 229 231 233 232 229 231 232 232 232 231 233 234 235 237 236 239 242 240 243 246 244 244 246 247 247 247 249
341 340 337 332 327 323 320 318 317 317 317 316 315 313 310 307 305 302 300 297 293 289 286 281 276 274 272 269 267 265 262 258 252 248 245 243 242 241 239 237 236 236 235 235 235 235 234 234 233 233 233 233 232 232 231 230 230 230 231 231 229 229 231 232 232 229 230 232 232 232 230 230 233 234 236 235 236 240 239 241 244 243 243 244 245 247 247 247
341 342 340 337 332 328 325 323 322 321 321 320 319 316 313 311 310 306 302 299 294 291 287 282 278 275 274 273 272 270 267 262 255 248 243 240 239 239 238 237 235 234 234 233 233 233 233 233 232 232 231 232 231 231 231 231 231 232 232 233 231 230 231 231 232 229 228 231 232 231 228 229 232 233 235 235 235 238 238 239 242 243 243 243 243 245 246 247
342 343 342 340 337 333 330 328 327 326 325 324 323 320 317 317 316 312 307 305 299 294 289 284 281 278 276 274 273 273 269 264 259 252 245 239 236 236 236 236 235 234 233 232 232 231 231 232 231 231 231 231 231 231 231 231 232 232 231 232 231 229 229 229 230 229 226 228 231 230 227 229 231 232 234 236 234 236 238 238 240 241 242 241 241 243 244 245
342 343 343 342 339 336 334 333 332 331 331 330 328 325 323 322 322 318 314 313 309 301 293 287 283 281 279 277 274 273 268 263 259 254 247 240 234 232 232 232 233 233 232 231 231 230 230 230 230 230 230 230 230 231 231 230 230 230 228 227 228 227 227 227 228 229 226 225 229 229 226 227 230 231 234 235 233 233 237 238 239 239 240 240 240 241 242 242
344 344 344 343 341 339 337 337 336 336 336 336 334 331 329 328 326 324 321 319 315 307 299 292 287 283 282 280 278 274 269 262 257 252 246 240 233 229 228 228 230 230 230 230 229 229 228 228 228 228 229 229 229 229 228 227 227 227 226 226 226 226 226 227 227 229 227 223 227 229 226 227 229 231 234 235 232 232 235 238 239 239 239 239 239 239 240 242
346 346 345 344 343 341 339 339 340 340 341 340 339 337 335 333 331 330 330 328 322 315 307 299 293 290 287 284 282 277 272 265 257 250 245 240 234 229 225 225 226 227 228 228 227 227 227 227 226 226 226 227 227 226 226 226 226 226 226 226 226 226 226 227 226 228 228 221 224 228 226 226 228 230 234 234 231 232 233 236 238 238 238 239 239 238 239 241
348 347 346 345 344 342 341 341 342 343 344 344 343 341 339 337 335 334 335 334 330 323 316 308 300 295 291 287 283 279 274 268 259 251 245 240 236 230 225 223 224 225 226 227 227 226 226 225 225 224 224 224 225 224 224 224 225 225 226 225 226 226 226 227 227 228 228 222 221 227 226 226 227 229 233 232 230 231 232 235 238 238 238 239 240 239 240 242
349 348 347 346 345 343 342 343 344 345 346 346 345 344 343 340 339 339 338 337 336 329 323 316 307 299 294 290 285 279 273 268 261 254 247 241 237 233 227 223 223 223 224 225 225 225 224 224 223 222 222 222 223 223 222 223 224 225 225 224 225 226 225 226 227 227 228 224 220 225 226 226 227 228 232 231 228 230 232 234 237 239 239 239 240 241 241 242
351 349 348 347 346 344 343 344 345 346 347 348 348 346 345 343 342 342 340 338 339 335 330 323 315 307 300 295 289 282 274 267 262 256 250 244 239 235 229 225 224 223 223 223 224 223 222 221 221 220 220 220 221 221 221 221 223 224 224 223 223 225 225 225 227 227 226 224 221 224 227 228 228 229 231 231 227 230 233 233 235 238 238 239 240 241 241 242
351 350 349 348 346 345 345 345 346 348 348 349 349 348 347 346 345 345 342 339 341 340 335 329 322 315 309 301 293 285 277 269 263 257 252 247 241 236 232 228 225 224 224 223 223 223 221 220 220 220 219 219 219 219 220 220 221 223 223 223 223 224 224 224 227 227 226 225 222 223 227 228 229 228 230 231 227 228 233 233 233 235 236 237 239 240 240 240
351 350 349 348 347 345 345 346 347 349 350 350 350 348 348 347 347 346 344 342 343 342 338 333 328 322 315 308 300 290 280 272 265 258 252 248 244 239 234 231 227 226 225 224 223 221 219 219 219 219 218 218 217 217 218 218 220 221 221 221 222 223 224 224 226 227 225 225 222 221 224 227 227 227 228 229 226 226 231 233 233 234 235 236 237 238 239 240
350 350 349 349 347 346 346 347 348 349 350 351 351 350 348 348 349 347 346 345 345 343 340 338 333 328 322 315 307 297 286 275 267 261 254 248 245 241 235 232 229 227 227 226 224 220 218 218 218 218 218 217 216 214 215 216 218 219 219 220 221 222 223 223 225 227 224 224 223 220 223 226 226 226 227 227 226 227 231 233 233 235 235 235 236 237 238 240
350 349 349 349 348 347 346 347 349 350 351 351 352 351 349 349 350 349 347 347 347 345 342 340 337 332 328 321 314 305 294 281 270 262 256 248 243 241 236 232 229 229 229 228 224 221 218 218 217 217 217 216 215 214 213 214 215 217 218 219 221 221 222 222 223 224 223 223 223 221 223 226 226 227 227 227 227 228 231 233 233 234 234 235 236 236 237 239
349 348 349 349 348 347 347 348 349 350 351 352 353 352 350 350 350 350 348 347 348 348 345 341 338 334 330 325 318 310 299 287 274 263 256 249 242 239 237 233 229 229 230 228 224 221 219 219 217 216 216 215 214 213 213 212 213 215 216 217 220 220 220 221 221 223 223 221 221 221 223 226 226 227 228 226 226 228 230 232 233 233 233 234 236 236 237 239
348 348 348 348 348 348 348 349 350 350 351 352 353 353 352 351 351 350 349 348 349 350 347 342 338 335 330 326 321 313 303 291 279 267 258 251 243 239 237 234 230 227 227 226 223 221 219 219 219 217 216 214 213 212 211 211 212 214 215 216 218 219 219 219 219 221 223 221 220 221 223 225 226 227 228 226 225 226 228 230 232 232 232 234 236 236 238 238
348 348 348 348 348 348 348 349 350 351 351 352 353 353 353 352 352 350 349 349 349 351 350 344 339 335 330 325 321 315 307 295 282 271 261 254 247 240 236 234 230 225 222 222 221 220 219 220 220 219 216 213 211 210 209 209 211 212 213 214 216 217 218 219 218 220 222 221 220 222 223 224 225 227 227 225 224 225 228 228 230 231 231 231 233 234 236 236
349 348 348 348 348 348 349 350 351 351 351 352 353 354 353 353 352 351 350 349 349 350 351 347 341 336 331 327 324 317 308 298 285 273 263 256 249 242 235 232 228 223 219 220 220 219 218 218 219 219 217 214 210 209 208 208 209 210 212 213 215 216 217 218 219 220 222 221 220 222 223 223 224 225 227 225 222 224 227 228 229 231 231 231 232 234 235 235
349 348 348 349 349 349 350 350 351 351 351 352 353 354 354 353 353 352 352 351 349 349 350 349 345 341 337 334 331 322 310 299 287 275 264 255 248 241 233 228 225 221 218 219 219 217 216 217 219 218 216 214 211 209 208 208 208 209 211 212 214 216 218 219 220 221 222 221 222 223 224 223 223 224 227 226 222 223 226 228 229 231 232 232 233 234 235 236
349 348 349 349 349 350 351 351 352 352 351 352 353 354 354 353 352 353 353 352 350 349 350 350 349 346 342 340 337 329 316 304 289 275 263 252 245 238 231 225 222 220 217 216 215 213 212 213 215 216 214 213 211 209 208 208 207 208 210 211 213 215 218 219 220 220 219 220 221 223 222 221 222 223 225 225 221 221 225 226 228 231 232 233 235 235 236 238
349 349 349 350 350 351 352 352 352 352 352 352 352 353 354 353 353 354 354 352 350 350 350 351 350 348 345 343 343 336 323 311 297 280 265 249 240 233 227 221 217 215 213 213 212 209 209 209 209 210 210 209 209 209 208 207 207 208 209 209 211 213 216 217 217 217 216 218 220 220 220 219 221 222 224 225 221 220 225 226 227 230 232 233 235 236 237 239
349 350 350 351 351 352 352 352 353 353 353 352 352 353 353 354 354 354 354 352 350 350 351 351 351 349 347 347 347 342 330 318 304 283 267 250 237 229 223 217 213 211 209 208 207 205 205 207 206 206 206 206 207 208 207 205 206 208 208 208 209 212 214 215 215 215 215 217 218 219 219 219 221 222 224 225 222 220 226 227 227 230 231 232 235 237 238 239
349 350 351 351 351 352 352 352 353 354 353 353 353 353 353 354 354 354 353 353 352 352 352 351 352 351 350 350 348 345 337 326 313 288 268 250 235 225 219 214 210 207 205 205 205 203 202 203 203 202 203 204 204 206 205 204 205 207 206 206 208 211 214 214 214 215 215 216 217 217 218 219 220 221 223 225 222 220 224 227 227 230 232 233 236 237 238 238
350 351 352 352 352 352 352 352 352 353 354 353 353 354 354 354 354 353 353 353 353 353 353 352 352 352 351 352 349 346 342 331 321 302 272 248 230 220 214 210 206 203 201 200 202 203 202 202 200 199 200 202 202 203 204 204 205 205 203 204 206 210 213 214 214 215 215 216 218 217 218 219 219 220 222 223 221 220 223 226 226 228 231 233 235 236 236 237
351 352 352 352 352 352 352 352 352 353 354 354 354 354 354 353 352 352 353 354 354 354 354 352 352 352 352 354 353 350 346 339 330 318 286 251 228 217 210 206 202 200 198 198 198 199 200 199 199 199 199 200 201 200 201 203 204 203 202 203 204 207 211 212 213 214 215 216 217 217 218 219 219 220 221 222 221 220 224 226 226 227 230 231 234 236 237 237
351 352 352 352 353 353 353 352 352 353 354 354 354 354 354 353 352 353 354 355 355 355 355 352 352 354 355 357 357 354 350 346 339 327 298 254 225 212 207 204 200 197 195 193 194 196 197 196 196 198 199 199 200 199 199 202 203 203 203 204 204 206 209 209 211 212 214 215 216 215 217 219 220 220 221 221 221 221 224 227 226 227 229 230 232 235 238 238
350 351 352 353 354 353 353 353 352 353 353 353 353 354 354 353 353 355 355 355 355 355 355 353 353 355 356 358 358 356 355 351 344 334 313 254 217 200 196 199 199 196 194 191 190 191 194 194 194 196 198 199 200 199 199 200 202 202 202 204 205 207 208 209 211 212 213 214 215 214 216 218 219 220 220 220 220 221 224 226 226 226 228 230 231 236 241 240
350 351 353 353 353 353 353 353 352 352 352 352 353 354 355 354 353 354 355 354 354 355 356 356 356 355 357 359 359 359 359 357 354 352 340 253 204 191 185 188 193 193 190 188 187 186 189 193 193 193 196 198 198 199 200 200 201 202 202 202 204 206 207 208 209 212 213 213 213 213 215 217 219 219 219 219 219 221 224 225 225 225 227 229 229 231 237 240
352 352 353 352 352 353 353 353 353 353 353 353 353 353 354 353 352 353 355 354 354 355 357 358 358 357 358 360 2 4 5 6 9 11 7 25 178 180 179 178 182 188 187 185 184 184 185 190 192 192 194 196 197 198 199 199 199 200 202 202 202 204 206 207 208 209 211 212 212 213 215 217 219 219 218 219 219 221 224 225 225 226 226 228 226 225 231 238
353 352 352 352 351 352 353 354 354 354 354 353 353 352 352 352 352 352 354 355 355 356 357 358 359 0 1 1 5 8 11 15 19 25 34 53 130 162 170 169 169 179 185 183 183 184 183 186 190 191 193 196 198 199 199 199 199 199 200 201 201 202 204 206 209 209 209 210 211 212 213 216 218 218 218 218 219 222 224 225 226 227 228 228 228 229 233 237
354 352 351 351 351 352 353 353 353 353 353 353 352 352 352 351 351 351 353 355 356 356 357 359 359 1 4 5 9 13 18 23 28 43 55 61 114 150 157 159 159 169 179 181 184 184 182 183 188 191 192 195 197 199 199 199 199 199 200 200 201 202 203 205 209 211 211 210 211 212 213 215 216 216 217 218 220 223 225 226 226 228 229 231 232 234 236 237
354 351 350 351 352 351 351 352 353 353 352 352 352 352 352 351 350 351 352 355 357 356 358 0 0 1 5 9 12 17 25 30 34 49 60 69 138 150 148 148 150 157 166 175 181 182 182 183 186 190 194 195 196 197 198 197 198 199 200 200 201 202 203 205 207 209 211 212 212 213 214 216 216 216 216 218 220 223 225 226 227 227 229 231 234 236 237 240
354 352 349 350 351 352 351 352 353 354 352 351 351 351 352 351 350 350 351 354 356 357 359 2 1 0 5 13 16 20 29 36 36 44 57 78 150 150 143 144 147 150 155 164 174 181 182 183 185 189 194 197 197 196 196 196 197 198 198 199 201 202 203 205 207 208 209 210 212 214 214 216 217 216 216 217 219 222 224 225 227 228 229 229 231 234 236 238
354 352 349 348 349 351 352 352 353 354 353 351 350 350 351 351 349 348 350 353 356 358 0 2 1 0 6 15 20 22 31 40 40 39 50 86 148 150 143 143 147 149 153 161 170 179 184 184 187 190 193 196 197 196 195 195 196 196 196 197 200 202 204 206 208 209 209 210 212 213 215 216 216 216 217 219 219 221 223 225 225 227 228 228 230 234 235 236
354 352 349 347 348 350 351 351 352 354 354 351 349 349 350 350 349 348 350 353 357 359 360 0 1 4 9 16 22 26 31 41 46 41 41 79 135 146 143 143 147 150 155 163 169 176 183 185 188 191 193 195 195 195 195 195 194 194 195 196 197 200 203 206 208 209 210 211 212 214 216 217 217 217 219 221 221 222 224 225 224 224 225 226 228 230 230 232
352 351 349 347 346 348 350 352 352 352 354 352 350 348 349 349 348 348 349 352 356 359 360 359 1 6 12 18 24 30 32 39 50 49 40 55 130 144 144 144 148 153 159 165 170 175 181 186 188 191 194 194 193 193 193 193 193 193 194 195 197 199 202 205 207 209 211 212 213 214 216 218 219 219 220 221 223 223 224 225 225 224 224 224 224 225 226 230
351 350 349 347 345 346 349 351 352 352 353 353 350 348 347 348 347 346 347 350 355 358 0 1 3 6 11 16 23 30 34 36 47 57 51 46 123 148 148 146 148 156 161 166 172 175 178 183 187 189 191 191 190 191 192 192 192 192 192 194 196 199 201 203 205 207 210 212 213 214 216 217 217 219 219 220 222 223 224 226 226 226 226 224 224 225 226 230
Height
10677 10676 10675 10674 10673 10673 10672 10671 10671 10670 10670 10669 10669 10668 10667 10666 10666 10665 10665 10664 10664 10663 10663 10662 10662 10661 10661 10661 10662 10662 10662 10664 10665 10666 10669 10672 10672 10675 10677 10678 10682 10684 10684 10686 10687 10692 10696 10698 10701 10702 10705 10708 10713 10719 10722 10724 10724 10728 10734 10744 10758 10769 10773 10772 10769 10770 10773 10772 10765 10760 10774 10785 10780 10786 10793 10797 10801 10798 10805 10807 10806 10811 10811 10817 10822 10822 10820 10821
10671 10670 10670 10668 10668 10667 10666 10665 10664 10663 10663 10662 10661 10660 10660 10659 10658 10657 10656 10656 10654 10654 10653 10653 10653 10652 10651 10651 10654 10653 10653 10655 10655 10659 10662 10661 10662 10667 10669 10669 10671 10674 10675 10677 10679 10684 10687 10690 10692 10694 10697 10700 10706 10710 10711 10714 10716 10722 10730 10740 10755 10766 10766 10762 10760 10762 10763 10762 10759 10755 10766 10779 10775 10778 10788 10792 10794 10794 10799 10799 10800 10805 10809 10814 10816 10816 10815 10817
10666 10665 10664 10663 10662 10661 10660 10658 10657 10657 10656 10655 10654 10653 10653 10651 10651 10649 10648 10646 10645 10644 10643 10643 10642 10642 10641 10641 10643 10643 10643 10643 10645 10652 10653 10651 10654 10658 10658 10659 10662 10663 10666 10669 10672 10674 10678 10681 10682 10686 10689 10692 10698 10701 10702 10704 10710 10718 10724 10736 10753 10759 10755 10752 10753 10755 10754 10753 10752 10749 10761 10774 10768 10772 10783 10785 10787 10790 10792 10792 10795 10799 10804 10810 10811 10811 10811 10813
10660 10659 10658 10657 10656 10655 10654 10652 10651 10650 10649 10649 10647 10646 10645 10644 10642 10640 10639 10637 10635 10634 10633 10633 10632 10631 10629 10629 10631 10631 10632 10630 10635 10645 10642 10642 10645 10646 10648 10650 10651 10653 10656 10659 10662 10665 10669 10671 10672 10677 10680 10684 10689 10691 10693 10696 10707 10713 10716 10733 10747 10745 10743 10746 10746 10745 10744 10744 10746 10745 10757 10766 10761 10768 10777 10778 10782 10784 10786 10787 10789 10792 10798 10806 10808 10808 10809 10810
10654 10654 10653 10652 10650 10649 10648 10647 10646 10645 10643 10642 10641 10640 10637 10636 10633 10631 10629 10625 10624 10623 10622 10622 10620 10620 10617 10616 10617 10618 10619 10615 10624 10637 10629 10630 10634 10635 10639 10640 10641 10643 10645 10649 10653 10655 10658 10660 10663 10667 10671 10676 10679 10681 10686 10693 10701 10703 10708 10727 10734 10731 10737 10739 10735 10734 10736 10737 10740 10742 10753 10759 10755 10762 10770 10774 10776 10777 10779 10779 10782 10789 10796 10803 10804 10804 10806 10807
10650 10649 10648 10647 10646 10644 10643 10642 10640 10639 10638 10636 10634 10632 10629 10626 10623 10620 10617 10613 10612 10611 10610 10609 10607 10606 10602 10602 10602 10603 10605 10600 10614 10626 10614 10616 10623 10624 10628 10628 10630 10633 10634 10639 10642 10645 10648 10650 10654 10659 10663 10667 10669 10674 10682 10686 10688 10691 10702 10718 10723 10725 10729 10727 10724 10726 10729 10730 10733 10740 10748 10751 10750 10756 10763 10768 10770 10771 10772 10772 10780 10788 10791 10798 10800 10799 10801 10803
10647 10646 10644 10643 10641 10640 10638 10637 10635 10634 10632 10630 10627 10624 10620 10617 10613 10608 10605 10601 10600 10598 10596 10595 10593 10591 10587 10586 10586 10587 10588 10586 10601 10611 10599 10603 10611 10613 10616 10616 10619 10621 10624 10628 10632 10636 10638 10639 10645 10651 10654 10657 10661 10667 10674 10674 10673 10682 10698 10709 10714 10716 10717 10717 10717 10718 10722 10724 10728 10738 10741 10741 10747 10751 10754 10762 10766 10766 10764 10768 10779 10782 10784 10793 10795 10794 10796 10800
10644 10642 10641 10639 10637 10635 10634 10632 10630 10628 10626 10623 10619 10615 10610 10606 10602 10597 10593 10589 10586 10583 10581 10579 10576 10574 10571 10570 10568 10568 10569 10571 10584 10592 10586 10589 10597 10600 10602 10604 10606 10609 10613 10617 10621 10625 10627 10631 10635 10640 10643 10648 10654 10658 10662 10661 10662 10677 10694 10701 10703 10706 10707 10707 10708 10711 10716 10718 10723 10733 10734 10736 10743 10744 10748 10756 10760 10760 10756 10766 10776 10774 10778 10786 10788 10790 10792 10797
10641 10639 10637 10635 10633 10631 10629 10627 10625 10623 10619 10616 10610 10605 10600 10594 10589 10583 10579 10575 10571 10568 10564 10561 10558 10555 10553 10551 10550 10548 10549 10553 10562 10570 10573 10575 10580 10584 10586 10590 10594 10596 10600 10605 10610 10614 10618 10622 10625 10629 10633 10638 10644 10646 10649 10650 10657 10676 10689 10690 10692 10696 10695 10696 10701 10705 10708 10712 10719 10728 10730 10731 10734 10738 10744 10748 10755 10756 10751 10763 10772 10768 10773 10778 10782 10787 10788 10792
10638 10636 10634 10631 10629 10627 10624 10621 10618 10615 10611 10606 10600 10594 10588 10582 10576 10570 10564 10559 10555 10550 10546 10542 10538 10535 10533 10531 10530 10527 10527 10532 10539 10549 10555 10558 10561 10566 10571 10575 10580 10582 10587 10593 10598 10603 10607 10610 10614 10617 10621 10627 10632 10636 10639 10643 10657 10672 10676 10677 10680 10682 10683 10688 10695 10697 10702 10709 10716 10725 10726 10724 10723 10731 10741 10743 10752 10750 10746 10761 10767 10764 10769 10771 10777 10782 10783 10788
10635 10633 10630 10627 10625 10621 10618 10615 10611 10607 10602 10597 10590 10583 10576 10569 10562 10555 10549 10543 10538 10532 10527 10522 10519 10516 10513 10511 10510 10505 10505 10512 10520 10528 10534 10539 10543 10549 10555 10560 10565 10568 10573 10580 10586 10590 10595 10599 10603 10606 10613 10619 10623 10629 10633 10639 10653 10660 10661 10665 10670 10673 10675 10681 10687 10692 10700 10705 10713 10720 10716 10711 10714 10729 10742 10741 10744 10742 10743 10758 10760 10760 10764 10764 10772 10776 10778 10783
10632 10629 10626 10623 10619 10616 10612 10608 10603 10598 10593 10586 10579 10571 10564 10556 10548 10541 10534 10528 10522 10515 10509 10504 10499 10497 10494 10493 10489 10482 10485 10494 10500 10507 10513 10520 10525 10531 10539 10545 10549 10554 10559 10566 10572 10578 10584 10587 10592 10598 10604 10609 10615 10621 10623 10630 10644 10648 10651 10658 10664 10666 10667 10673 10683 10690 10695 10700 10709 10711 10702 10704 10717 10734 10742 10733 10731 10735 10743 10752 10753 10756 10758 10759 10766 10770 10773 10777
10628 10624 10621 10617 10613 10609 10605 10600 10594 10589 10582 10575 10567 10559 10551 10542 10534 10526 10519 10512 10505 10498 10492 10486 10482 10479 10476 10475 10468 10463 10470 10477 10482 10488 10494 10501 10507 10513 10521 10527 10533 10538 10544 10551 10558 10565 10572 10575 10582 10588 10590 10598 10607 10608 10612 10624 10634 10638 10642 10648 10654 10655 10657 10668 10680 10686 10687 10694 10702 10697 10694 10708 10725 10731 10729 10723 10723 10730 10740 10743 10745 10749 10752 10755 10761 10765 10769 10772
10623 10619 10615 10610 10606 10601 10597 10591 10585 10579 10572 10564 10555 10547 10537 10528 10519 10512 10504 10497 10489 10482 10475 10469 10465 10462 10461 10458 10451 10449 10456 10462 10467 10471 10476 10482 10488 10493 10500 10509 10515 10521 10528 10535 10542 10552 10558 10561 10568 10575 10578 10589 10597 10596 10607 10619 10623 10627 10630 10635 10644 10648 10655 10666 10676 10680 10680 10688 10692 10686 10694 10713 10724 10720 10716 10719 10718 10723 10735 10734 10736 10744 10746 10751 10756 10761 10765 10766
10617 10613 10608 10603 10599 10594 10589 10582 10576 10569 10561 10553 10544 10535 10525 10516 10506 10498 10491 10483 10474 10466 10459 10454 10451 10447 10446 10443 10438 10438 10443 10449 10453 10456 10460 10465 10469 10475 10482 10491 10497 10503 10511 10517 10525 10536 10543 10547 10555 10563 10569 10577 10582 10585 10600 10608 10609 10616 10618 10625 10640 10648 10655 10660 10668 10675 10675 10681 10682 10679 10697 10713 10716 10711 10708 10715 10711 10715 10729 10725 10728 10740 10742 10747 10752 10756 10761 10762
10611 10607 10602 10597 10591 10587 10581 10574 10568 10560 10552 10543 10534 10524 10515 10504 10495 10486 10480 10472 10461 10452 10446 10441 10437 10433 10433 10431 10426 10426 10431 10436 10440 10442 10446 10449 10453 10457 10465 10474 10478 10484 10492 10500 10509 10520 10528 10534 10542 10551 10556 10562 10568 10578 10590 10595 10597 10605 10610 10622 10639 10648 10652 10653 10660 10671 10670 10671 10670 10676 10701 10710 10703 10700 10699 10707 10706 10709 10724 10720 10722 10735 10737 10743 10747 10750 10755 10757
10605 10601 10595 10590 10585 10579 10573 10567 10559 10551 10543 10534 10524 10514 10505 10495 10484 10475 10469 10462 10449 10441 10435 10429 10425 10421 10420 10419 10415 10415 10419 10423 10426 10428 10431 10435 10437 10442 10449 10456 10460 10466 10474 10482 10492 10503 10512 10520 10528 10537 10543 10548 10560 10570 10574 10579 10588 10599 10609 10622 10637 10644 10646 10647 10653 10663 10662 10661 10665 10678 10698 10698 10690 10692 10692 10698 10701 10705 10717 10717 10716 10726 10732 10738 10742 10745 10750 10753
10600 10594 10589 10583 10578 10572 10566 10559 10551 10543 10534 10525 10515 10505 10494 10485 10475 10464 10459 10453 10441 10432 10426 10419 10414 10412 10411 10409 10404 10405 10408 10409 10410 10413 10417 10420 10423 10428 10434 10440 10445 10451 10458 10465 10475 10486 10496 10504 10514 10522 10527 10535 10548 10556 10561 10576 10593 10603 10615 10625 10635 10639 10638 10640 10644 10650 10654 10654 10660 10673 10687 10687 10683 10687 10684 10687 10698 10703 10709 10713 10713 10719 10725 10732 10738 10741 10745 10748
10594 10588 10582 10577 10571 10565 10558 10550 10542 10534 10525 10516 10506 10496 10485 10475 10465 10454 10447 10443 10433 10423 10418 10411 10405 10403 10403 10401 10397 10396 10398 10397 10398 10401 10405 10408 10412 10416 10421 10427 10432 10437 10443 10450 10460 10470 10479 10488 10497 10505 10514 10527 10541 10550 10564 10585 10597 10603 10613 10618 10620 10622 10622 10627 10631 10635 10644 10649 10653 10666 10679 10679 10676 10679 10674 10677 10694 10700 10702 10708 10708 10712 10719 10726 10733 10736 10740 10742
10588 10582 10576 10569 10563 10556 10549 10542 10533 10525 10515 10506 10496 10486 10476 10466 10457 10446 10437 10432 10425 10415 10410 10405 10400 10395 10393 10392 10389 10388 10388 10387 10388 10390 10393 10397 10400 10403 10408 10413 10417 10423 10431 10438 10446 10454 10462 10471 10481 10494 10508 10525 10538 10550 10566 10580 10584 10587 10593 10594 10596 10601 10606 10614 10621 10625 10635 10646 10650 10660 10671 10669 10667 10669 10664 10670 10689 10695 10697 10701 10702 10707 10715 10722 10728 10732 10734 10736
10581 10575 10568 10562 10555 10548 10541 10533 10524 10515 10506 10496 10486 10475 10466 10457 10448 10439 10429 10423 10417 10409 10402 10398 10394 10389 10385 10383 10381 10380 10379 10379 10379 10379 10381 10384 10386 10388 10392 10398 10403 10410 10417 10422 10429 10435 10443 10453 10468 10486 10502 10518 10529 10540 10553 10561 10563 10566 10571 10577 10583 10591 10599 10607 10616 10618 10626 10642 10647 10651 10660 10659 10660 10664 10658 10667 10685 10692 10694 10694 10695 10703 10711 10717 10723 10727 10728 10729
10575 10568 10561 10554 10547 10540 10532 10524 10515 10506 10497 10487 10477 10467 10457 10448 10439 10431 10422 10414 10408 10402 10396 10391 10386 10381 10378 10375 10373 10371 10370 10370 10370 10369 10371 10373 10374 10376 10380 10385 10390 10397 10402 10406 10412 10420 10430 10442 10458 10477 10494 10506 10515 10523 10535 10542 10548 10553 10560 10570 10577 10586 10595 10600 10608 10609 10615 10637 10643 10642 10651 10653 10656 10657 10650 10662 10682 10687 10688 10686 10688 10697 10706 10712 10717 10721 10723 10725
10569 10562 10555 10547 10540 10532 10524 10516 10507 10498 10489 10479 10469 10460 10450 10441 10432 10423 10416 10408 10401 10394 10389 10384 10379 10375 10371 10367 10365 10364 10362 10361 10361 10361 10361 10363 10364 10367 10370 10375 10378 10383 10388 10393 10401 10410 10420 10432 10449 10467 10480 10488 10494 10505 10519 10528 10536 10543 10550 10562 10572 10581 10589 10594 10601 10603 10610 10633 10640 10635 10642 10644 10645 10646 10643 10660 10678 10680 10680 10680 10683 10694 10702 10707 10711 10715 10719 10722
10563 10555 10548 10541 10533 10525 10517 10509 10500 10491 10482 10472 10462 10453 10444 10435 10426 10417 10409 10403 10396 10388 10383 10378 10373 10369 10365 10361 10359 10357 10355 10354 10353 10353 10353 10355 10357 10359 10363 10366 10368 10372 10378 10383 10391 10399 10409 10423 10440 10453 10460 10466 10477 10492 10506 10516 10526 10533 10542 10557 10568 10575 10584 10589 10593 10597 10606 10625 10632 10628 10631 10634 10637 10642 10644 10658 10673 10673 10673 10677 10682 10691 10698 10703 10707 10710 10715 10720
10558 10550 10542 10534 10527 10519 10510 10502 10493 10484 10474 10465 10456 10447 10439 10430 10420 10412 10404 10397 10391 10383 10378 10373 10368 10364 10360 10356 10353 10351 10349 10348 10347 10346 10346 10348 10350 10352 10355 10357 10360 10365 10368 10373 10379 10387 10400 10415 10426 10433 10440 10450 10466 10481 10494 10508 10518 10525 10536 10553 10563 10568 10577 10580 10580 10589 10600 10613 10624 10625 10626 10631 10635 10641 10644 10654 10668 10670 10668 10674 10681 10687 10693 10698 10702 10705 10710 10715
10552 10545 10537 10529 10520 10512 10504 10496 10487 10478 10468 10459 10450 10442 10434 10425 10415 10407 10399 10392 10386 10379 10373 10368 10363 10359 10354 10351 10348 10346 10344 10342 10341 10340 10340 10342 10343 10345 10348 10350 10354 10357 10359 10365 10370 10378 10393 10406 10411 10418 10428 10440 10455 10470 10484 10499 10508 10516 10532 10550 10557 10559 10565 10571 10574 10584 10596 10608 10620 10622 10620 10624 10627 10634 10642 10651 10663 10666 10662 10670 10678 10682 10688 10693 10696 10699 10704 10708
10547 10540 10532 10524 10515 10506 10498 10490 10482 10473 10464 10454 10445 10436 10428 10420 10411 10403 10396 10388 10381 10375 10369 10364 10358 10354 10350 10346 10342 10340 10338 10337 10335 10334 10335 10336 10336 10339 10341 10344 10348 10350 10353 10357 10362 10373 10390 10398 10401 10408 10419 10428 10441 10458 10473 10488 10497 10508 10527 10540 10545 10548 10557 10566 10569 10577 10593 10603 10607 10609 10609 10611 10617 10630 10640 10645 10656 10659 10658 10666 10674 10678 10684 10688 10690 10694 10699 10701
10541 10535 10528 10520 10511 10502 10493 10485 10476 10467 10459 10450 10441 10431 10423 10416 10407 10398 10390 10383 10377 10371 10365 10359 10353 10349 10345 10342 10338 10334 10333 10332 10330 10329 10330 10330 10331 10333 10335 10337 10341 10343 10346 10351 10359 10373 10383 10387 10391 10399 10408 10417 10431 10448 10462 10476 10488 10502 10519 10529 10534 10541 10550 10560 10564 10572 10587 10589 10588 10598 10601 10602 10614 10628 10634 10639 10650 10657 10659 10665 10671 10674 10679 10683 10685 10689 10693 10694
10536 10530 10523 10515 10507 10498 10489 10480 10472 10463 10455 10446 10437 10427 10418 10410 10403 10395 10387 10379 10373 10367 10360 10355 10349 10344 10341 10337 10334 10330 10328 10326 10325 10324 10324 10325 10326 10326 10328 10331 10335 10337 10341 10349 10359 10369 10371 10373 10380 10388 10397 10409 10424 10439 10450 10464 10480 10494 10508 10518 10525 10533 10541 10549 10555 10562 10572 10573 10578 10594 10597 10601 10617 10625 10627 10638 10651 10658 10660 10662 10665 10669 10674 10677 10679 10684 10685 10687
10532 10525 10518 10511 10503 10495 10485 10476 10468 10459 10450 10442 10433 10425 10415 10406 10398 10392 10384 10376 10369 10362 10355 10351 10346 10341 10337 10333 10330 10327 10324 10322 10321 10320 10320 10320 10321 10321 10322 10326 10330 10333 10338 10346 10355 10360 10361 10365 10371 10378 10389 10402 10416 10431 10443 10459 10474 10484 10498 10509 10514 10522 10531 10539 10547 10553 10555 10559 10573 10591 10598 10604 10614 10617 10624 10641 10651 10654 10654 10656 10661 10666 10669 10672 10675 10678 10678 10682
10529 10522 10514 10507 10499 10491 10483 10474 10465 10456 10447 10439 10431 10423 10414 10404 10396 10388 10382 10374 10366 10360 10353 10347 10343 10338 10334 10329 10326 10323 10320 10318 10317 10316 10315 10315 10317 10317 10319 10322 10325 10329 10335 10341 10347 10350 10353 10358 10366 10374 10384 10396 10409 10423 10438 10453 10465 10474 10487 10497 10501 10511 10521 10527 10538 10539 10536 10551 10577 10591 10596 10600 10606 10614 10627 10641 10645 10645 10648 10653 10658 10661 10664 10668 10670 10672 10673 10678
10527 10519 10511 10503 10495 10487 10479 10471 10462 10453 10445 10437 10429 10421 10412 10403 10395 10386 10379 10372 10364 10358 10351 10345 10339 10335 10331 10327 10323 10319 10316 10315 10313 10312 10312 10312 10313 10314 10316 10318 10321 10325 10330 10333 10336 10340 10347 10356 10364 10373 10381 10391 10403 10415 10428 10440 10450 10462 10474 10481 10489 10500 10509 10516 10525 10524 10530 10562 10587 10588 10590 10596 10605 10617 10626 10632 10637 10641 10644 10649 10652 10654 10658 10661 10663 10665 10667 10672
10525 10516 10508 10500 10493 10484 10475 10466 10458 10449 10441 10433 10426 10419 10411 10402 10394 10385 10375 10367 10361 10355 10350 10344 10338 10333 10329 10325 10321 10317 10314 10311 10310 10309 10309 10309 10309 10311 10313 10314 10316 10320 10323 10325 10329 10336 10344 10352 10359 10368 10377 10387 10397 10407 10419 10428 10438 10451 10460 10469 10481 10492 10499 10508 10517 10524 10546 10577 10584 10577 10583 10594 10604 10614 10617 10623 10633 10637 10639 10643 10646 10650 10653 10655 10657 10659 10662 10666
10522 10514 10506 10498 10491 10482 10473 10464 10456 10447 10438 10431 10424 10417 10409 10401 10393 10385 10375 10366 10359 10352 10347 10342 10336 10331 10326 10322 10318 10315 10311 10309 10307 10306 10306 10306 10306 10307 10308 10310 10311 10314 10317 10321 10327 10335 10342 10350 10357 10367 10378 10387 10396 10405 10414 10423 10434 10446 10455 10468 10483 10491 10500 10514 10526 10542 10566 10578 10573 10571 10581 10593 10604 10610 10610 10617 10630 10632 10633 10638 10642 10645 10648 10650 10652 10655 10659 10662
10520 10512 10504 10496 10488 10479 10471 10462 10454 10445 10436 10428 10421 10414 10407 10400 10393 10384 10375 10367 10359 10352 10345 10338 10334 10329 10324 10320 10316 10312 10309 10307 10305 10304 10303 10303 10303 10304 10304 10306 10308 10311 10315 10319 10324 10331 10338 10345 10354 10364 10375 10384 10394 10402 10409 10419 10432 10443 10453 10467 10481 10491 10506 10522 10534 10550 10562 10561 10560 10565 10576 10591 10599 10601 10603 10612 10624 10628 10628 10633 10638 10640 10643 10645 10647 10651 10656 10660
10519 10511 10502 10495 10487 10478 10470 10461 10453 10444 10434 10424 10417 10410 10405 10397 10389 10380 10372 10365 10359 10353 10346 10338 10332 10327 10322 10318 10314 10311 10307 10305 10303 10302 10301 10301 10301 10301 10301 10303 10306 10308 10312 10317 10321 10328 10334 10340 10347 10356 10366 10377 10387 10396 10405 10418 10429 10436 10445 10460 10477 10492 10504 10515 10525 10537 10543 10544 10549 10558 10571 10586 10590 10594 10600 10607 10619 10625 10624 10629 10633 10634 10638 10641 10643 10648 10652 10657
10516 10509 10501 10493 10485 10477 10469 10461 10452 10443 10433 10424 10415 10407 10400 10393 10385 10378 10371 10365 10357 10350 10343 10337 10331 10325 10320 10316 10312 10309 10305 10303 10302 10300 10299 10299 10299 10299 10299 10301 10303 10306 10309 10314 10319 10324 10329 10336 10344 10353 10363 10372 10382 10392 10402 10416 10424 10429 10442 10461 10479 10488 10494 10504 10516 10525 10530 10535 10543 10555 10570 10581 10585 10592 10599 10603 10616 10623 10621 10624 10628 10629 10634 10638 10640 10645 10649 10653
10513 10506 10498 10490 10482 10475 10468 10459 10451 10443 10434 10425 10416 10407 10399 10392 10385 10378 10371 10364 10357 10349 10341 10335 10330 10324 10319 10314 10310 10308 10305 10301 10300 10299 10298 10297 10297 10298 10298 10300 10302 10304 10308 10313 10318 10321 10325 10332 10341 10351 10360 10368 10377 10386 10397 10407 10413 10424 10444 10462 10473 10479 10484 10495 10505 10514 10524 10532 10542 10556 10568 10574 10581 10590 10595 10600 10612 10619 10615 10617 10622 10624 10629 10634 10637 10641 10644 10648
10512 10504 10496 10488 10480 10473 10466 10457 10450 10443 10434 10424 10415 10407 10398 10390 10383 10377 10371 10363 10356 10349 10342 10334 10329 10324 10319 10314 10309 10306 10304 10301 10299 10298 10297 10297 10297 10297 10297 10299 10301 10304 10307 10311 10315 10321 10326 10334 10342 10349 10357 10364 10372 10381 10392 10402 10408 10421 10439 10450 10460 10470 10478 10490 10503 10514 10526 10534 10544 10557 10564 10570 10579 10586 10590 10596 10607 10612 10608 10610 10616 10620 10625 10629 10633 10635 10638 10643
10511 10504 10496 10488 10479 10470 10462 10454 10445 10438 10431 10423 10414 10406 10398 10391 10384 10377 10370 10363 10355 10348 10341 10335 10329 10325 10319 10314 10309 10306 10303 10301 10299 10298 10297 10297 10296 10296 10297 10299 10301 10303 10307 10311 10316 10322 10328 10335 10342 10348 10353 10360 10367 10377 10388 10397 10406 10418 10428 10435 10447 10457 10467 10484 10502 10514 10525 10532 10543 10555 10561 10568 10577 10581 10585 10592 10601 10605 10603 10604 10611 10616 10619 10624 10627 10630 10634 10638
10508 10502 10494 10486 10477 10469 10460 10451 10442 10434 10427 10421 10414 10407 10400 10393 10386 10377 10369 10362 10355 10348 10342 10336 10329 10324 10320 10314 10310 10306 10303 10301 10299 10298 10297 10297 10296 10296 10297 10299 10301 10304 10307 10311 10316 10321 10327 10333 10340 10346 10352 10359 10368 10377 10386 10394 10404 10417 10427 10436 10445 10452 10465 10485 10499 10510 10521 10531 10542 10552 10559 10566 10571 10574 10580 10588 10595 10599 10598 10600 10607 10612 10614 10618 10623 10627 10629 10633
10505 10500 10493 10484 10475 10466 10458 10450 10442 10435 10429 10422 10416 10409 10401 10392 10385 10378 10371 10363 10357 10350 10344 10338 10331 10325 10320 10315 10311 10307 10304 10302 10300 10299 10298 10298 10297 10297 10298 10300 10302 10305 10308 10311 10315 10321 10327 10333 10339 10346 10354 10362 10371 10379 10385 10393 10404 10415 10426 10438 10449 10459 10475 10492 10503 10512 10521 10529 10538 10548 10554 10559 10562 10568 10576 10583 10590 10593 10592 10594 10601 10607 10609 10614 10620 10624 10625 10629
10504 10496 10488 10480 10474 10467 10458 10449 10440 10432 10425 10418 10410 10404 10398 10390 10383 10378 10372 10365 10358 10353 10346 10339 10332 10327 10321 10317 10313 10309 10306 10303 10301 10300 10299 10299 10298 10298 10299 10301 10304 10306 10309 10313 10317 10321 10327 10333 10339 10346 10354 10362 10372 10380 10387 10394 10404 10414 10424 10435 10449 10464 10478 10490 10501 10511 10517 10523 10533 10541 10547 10550 10555 10563 10572 10579 10585 10586 10585 10588 10595 10600 10604 10610 10618 10622 10623 10625
10505 10497 10488 10480 10474 10467 10459 10449 10438 10429 10421 10414 10407 10400 10396 10391 10384 10378 10373 10366 10359 10353 10346 10340 10334 10329 10323 10318 10314 10310 10307 10304 10303 10302 10301 10300 10300 10300 10301 10303 10306 10310 10312 10315 10318 10321 10326 10333 10340 10346 10353 10361 10367 10374 10381 10389 10399 10411 10422 10433 10446 10459 10472 10483 10491 10497 10505 10516 10527 10536 10543 10547 10552 10561 10569 10575 10579 10577 10577 10584 10590 10594 10600 10607 10614 10618 10620 10622
10505 10499 10494 10485 10476 10467 10459 10450 10440 10431 10423 10416 10409 10402 10395 10390 10384 10378 10373 10367 10360 10353 10347 10341 10336 10331 10325 10320 10316 10312 10309 10307 10305 10304 10304 10303 10303 10303 10304 10305 10308 10312 10315 10318 10320 10323 10327 10334 10340 10347 10355 10363 10370 10375 10383 10392 10402 10411 10420 10431 10442 10451 10464 10475 10482 10489 10501 10513 10523 10531 10537 10541 10548 10558 10565 10570 10571 10569 10572 10580 10586 10591 10597 10602 10608 10613 10617 10620
10504 10496 10492 10486 10477 10468 10460 10453 10444 10435 10428 10421 10413 10405 10397 10390 10384 10380 10374 10368 10361 10355 10350 10343 10337 10333 10328 10323 10319 10316 10313 10310 10309 10307 10305 10306 10306 10306 10307 10308 10310 10314 10318 10321 10324 10328 10333 10338 10345 10352 10358 10365 10374 10382 10389 10396 10405 10412 10419 10429 10440 10451 10463 10474 10482 10493 10503 10511 10518 10525 10532 10537 10544 10553 10559 10563 10565 10565 10569 10577 10583 10588 10593 10598 10604 10610 10614 10618
10504 10496 10489 10484 10476 10467 10458 10452 10443 10434 10426 10420 10414 10407 10400 10392 10385 10379 10375 10369 10363 10358 10352 10346 10340 10335 10331 10326 10322 10319 10316 10314 10312 10310 10308 10309 10309 10309 10309 10311 10313 10317 10320 10325 10330 10335 10340 10344 10350 10357 10363 10367 10372 10379 10386 10395 10403 10411 10421 10433 10443 10454 10464 10472 10480 10491 10501 10510 10519 10525 10530 10534 10540 10547 10553 10556 10559 10561 10566 10573 10578 10584 10589 10595 10602 10606 10611 10617
10501 10494 10486 10480 10475 10468 10457 10448 10440 10431 10422 10416 10412 10406 10400 10394 10386 10380 10375 10371 10366 10360 10354 10349 10343 10339 10334 10329 10325 10322 10319 10317 10315 10314 10313 10313 10313 10312 10313 10314 10317 10320 10323 10328 10335 10340 10344 10349 10353 10359 10365 10370 10376 10381 10389 10397 10404 10412 10424 10436 10446 10455 10463 10472 10480 10488 10498 10509 10516 10520 10525 10530 10537 10544 10547 10549 10553 10557 10561 10568 10575 10581 10587 10593 10598 10603 10608 10614
10498 10490 10481 10475 10471 10466 10457 10447 10440 10433 10424 10416 10410 10405 10400 10394 10388 10382 10377 10372 10366 10361 10356 10352 10347 10342 10337 10332 10329 10326 10323 10320 10319 10319 10318 10318 10317 10316 10316 10318 10320 10324 10327 10331 10337 10343 10348 10353 10358 10362 10366 10371 10377 10383 10389 10396 10404 10414 10425 10435 10445 10455 10464 10472 10479 10486 10495 10504 10509 10515 10522 10527 10532 10538 10541 10544 10550 10554 10557 10565 10572 10579 10585 10592 10596 10601 10605 10609
10498 10491 10481 10472 10467 10464 10458 10449 10439 10433 10426 10416 10408 10403 10399 10394 10389 10383 10377 10373 10368 10362 10357 10353 10350 10346 10340 10335 10332 10330 10327 10324 10323 10323 10323 10323 10322 10321 10321 10322 10324 10327 10331 10335 10340 10345 10351 10356 10360 10364 10368 10372 10379 10386 10393 10400 10408 10417 10426 10434 10443 10452 10461 10468 10476 10486 10496 10503 10509 10515 10519 10523 10530 10535 10539 10543 10548 10551 10555 10561 10569 10575 10582 10588 10594 10598 10601 10602
10498 10493 10485 10474 10466 10462 10458 10450 10439 10432 10426 10418 10408 10401 10397 10392 10387 10383 10379 10375 10371 10365 10360 10355 10351 10347 10343 10339 10335 10333 10331 10329 10327 10327 10327 10327 10327 10326 10326 10327 10329 10331 10334 10339 10343 10347 10353 10358 10362 10366 10370 10376 10383 10390 10397 10404 10411 10418 10427 10435 10444 10451 10459 10469 10478 10489 10497 10502 10509 10515 10518 10524 10531 10534 10537 10541 10544 10547 10552 10558 10565 10572 10577 10583 10589 10592 10595 10594
10495 10490 10485 10476 10465 10458 10455 10450 10440 10430 10424 10419 10411 10402 10397 10392 10387 10382 10379 10375 10371 10367 10363 10358 10352 10348 10344 10342 10339 10337 10335 10334 10332 10331 10331 10331 10332 10331 10331 10332 10334 10336 10339 10342 10346 10350 10354 10359 10364 10369 10374 10381 10387 10393 10399 10405 10412 10420 10428 10437 10446 10453 10461 10470 10478 10486 10492 10499 10508 10514 10516 10520 10524 10526 10529 10533 10537 10543 10549 10555 10562 10568 10573 10578 10582 10584 10587 10588